ABS-2A (MONGOLSAT-1)

Last updated on Thu Nov 21 2024 00:02:43 GMT+0000 (Coordinated Universal Time)

1 41588U 16038A 24324.95272194 -.00000083 00000+0 00000+0 0 9998 2 41588 0.0113 297.3848 0001739 264.8733 274.9122 1.00269894 30950
UTC large
Height (km)
Speed (km/s)
/
Latitude / Longitude
Inclination (degrees)
Orbital Period (minutes)
Azimuth
Elevation
Range (km)
Doppler Factor

Next 0 passes for location: London (51.5072 / 0.1276)

Sorry there are no passes over London.